Prescott, AZ

8:12 PM MST on November 17, 2019 (GMT -0700)
Love

Weather History for KPRC - May, 2019

Change the Weather History Date:

Thursday, May 9, 2019

  Actual Average Record
Temperature  
Mean Temperature 53 °F 60 °F  
Max Temperature 62 °F 74 °F 90 °F (2018)
Min Temperature 43 °F 45 °F 28 °F (1979)
Degree Days  
Heating Degree Days 12    
Month to date heating degree days 72  
Since 1 July heating degree days 4121  
Cooling Degree Days 0    
Month to date cooling degree days 0  
Year to date cooling degree days 1  
Growing Degree Days 2 (Base 50)    
Moisture  
Dew Point 43 °F    
Average Humidity 76    
Maximum Humidity 100    
Minimum Humidity 57    
Precipitation  
Precipitation 0.12 in 0.01 in 0.40 in (2017)
Month to date precipitation 0.73 0.13  
Year to date precipitation 6.25 4.21  
Sea Level Pressure  
Sea Level Pressure 29.78 in    
Wind  
Wind Speed 7 mph (West)    
Max Wind Speed 18 mph    
Max Gust Speed 22 mph    
Visibility 10 miles    
Events Rain , Thunderstorm    
T = Trace of Precipitation, MM = Missing Value Source: NWS Daily Summary

Daily Weather History Graph

Daily Weather History Graph

Search for Another Location

Airport or City:

Astronomy

May. 09, 2019 Rise Set
Actual Time 5:31 AM MST 7:20 PM MST
Civil Twilight 5:04 AM MST 7:48 PM MST
Nautical Twilight 4:31 AM MST 8:21 PM MST
Astronomical Twilight 3:55 AM MST 8:57 PM MST
Moon 9:34 AM MST (5/9) No Moon Set
Length of Visible Light 14h 44m
Length of Day
13h 48m
Waxing Crescent, 26% of the Moon is Illuminated
May 9
Waxing Crescent
May 11
First Quarter
May 18
Full
May 26
Last Quarter
Jun 3
New

Hourly Weather History & Observations

Time (MST) Temp. Windchill Dew Point Humidity Pressure Visibility Wind Dir Wind Speed Gust Speed Precip Events Conditions
12:53 AM 46.0 °F 41.0 °F 37.0 °F 71% 29.83 in 10.0 mi SSW 10.4 mph - N/A   Clear
1:53 AM 44.1 °F 40.1 °F 37.9 °F 79% 29.81 in 10.0 mi South 6.9 mph - N/A   Scattered Clouds
2:53 AM 45.0 °F 40.1 °F 37.0 °F 74% 29.80 in 10.0 mi SSW 9.2 mph - N/A   Partly Cloudy
3:53 AM 46.0 °F - 36.0 °F 68% 29.78 in 10.0 mi Calm Calm - N/A   Overcast
4:53 AM 46.0 °F - 37.9 °F 73% 29.77 in 10.0 mi Calm Calm - N/A   Overcast
5:53 AM 46.0 °F - 39.0 °F 76% 29.75 in 10.0 mi Calm Calm - N/A   Mostly Cloudy
6:53 AM 48.9 °F - 39.9 °F 71% 29.77 in 10.0 mi Calm Calm - N/A   Overcast
7:53 AM 51.1 °F - 43.0 °F 74% 29.77 in 10.0 mi Variable 4.6 mph - N/A   Mostly Cloudy
8:53 AM 57.9 °F - 42.1 °F 56% 29.77 in 10.0 mi SE 5.8 mph - N/A   Mostly Cloudy
9:53 AM 59.0 °F - 44.1 °F 58% 29.77 in 10.0 mi North 8.1 mph - N/A   Mostly Cloudy
10:53 AM 59.0 °F - 44.1 °F 58% 29.78 in 10.0 mi NNW 13.8 mph - N/A   Overcast
11:53 AM 55.9 °F - 46.0 °F 69% 29.79 in 10.0 mi NNW 11.5 mph - 0.00 in Rain Light Rain
12:53 PM 60.1 °F - 46.9 °F 62% 29.77 in 10.0 mi NE 3.5 mph - 0.01 in   Overcast
1:53 PM 55.9 °F - 45.0 °F 67% 29.78 in 10.0 mi NW 18.4 mph - 0.00 in Rain Light Rain
2:53 PM 55.0 °F - 43.0 °F 64% 29.79 in 10.0 mi North 12.7 mph - 0.01 in   Overcast
3:53 PM 52.0 °F - 44.1 °F 74% 29.77 in 10.0 mi North 13.8 mph - 0.01 in Rain , Thunderstorm Light Rain
4:08 PM 52.0 °F - 45.0 °F 77% 29.90 in 10.0 mi WNW 9.2 mph - 0.00 in Rain , Thunderstorm Light Thunderstorms and Rain
4:53 PM 50.0 °F - 46.0 °F 86% 29.78 in 10.0 mi WNW 8.1 mph - 0.05 in Rain Light Rain
5:53 PM 50.0 °F - 46.9 °F 89% 29.76 in 10.0 mi NE 9.2 mph - 0.04 in   Overcast
6:53 PM 50.0 °F - 46.0 °F 86% 29.74 in 10.0 mi SSW 4.6 mph - N/A   Overcast
7:53 PM 50.0 °F - 46.9 °F 89% 29.75 in 10.0 mi Calm Calm - N/A   Mostly Cloudy
8:53 PM 48.0 °F - 46.9 °F 96% 29.74 in 10.0 mi Calm Calm - N/A   Partly Cloudy
9:53 PM 46.9 °F - 46.0 °F 97% 29.74 in 10.0 mi SSW 4.6 mph - N/A   Clear
10:53 PM 45.0 °F 41.8 °F 43.0 °F 93% 29.74 in 10.0 mi South 5.8 mph - N/A   Clear
11:53 PM 45.0 °F 41.8 °F 43.0 °F 93% 29.75 in 9.0 mi SSW 5.8 mph - N/A   Clear